N6242F KMYF-KSAN

Flight info

Callsign N6242F
Flight time 0h -12m
Altitude 6000
Route RADAR VECTORS PLEASE
Aircraft C172/L-V/N

Departure

Time 2026-05-09 06:51
Airport Montgomery-Gibbs Executive Airport (KMYF)

Arrival

Time 2026-05-09 06:38
Airport San Diego International Airport (KSAN)
Time Latitude Longitude Altitude Speed Heading
2026-05-09 06:38 32.81472 -117.14366 425 ft 0 kts 70°
2026-05-09 06:44 32.81470 -117.14308 425 ft 3 kts 97°
2026-05-09 06:45 32.81470 -117.14307 425 ft 0 kts 97°
2026-05-09 06:47 32.81478 -117.14261 426 ft 8 kts 66°
2026-05-09 06:47 32.81510 -117.14241 426 ft 5 kts
2026-05-09 06:48 32.81528 -117.14215 421 ft 4 kts 62°
2026-05-09 06:48 32.81533 -117.14205 426 ft 3 kts 62°
2026-05-09 06:48 32.81522 -117.14109 419 ft 21 kts 114°
2026-05-09 06:48 32.81437 -117.13896 425 ft 36 kts 116°
2026-05-09 06:49 32.81332 -117.13631 424 ft 32 kts 115°
2026-05-09 06:49 32.81306 -117.13526 424 ft 6 kts
2026-05-09 06:49 32.81317 -117.13526 421 ft 0 kts
2026-05-09 06:49 32.81357 -117.13510 418 ft 15 kts 25°
2026-05-09 06:50 32.81447 -117.13531 420 ft 24 kts 305°
2026-05-09 06:50 32.81594 -117.13899 419 ft 71 kts 296°
2026-05-09 06:50 32.81805 -117.14479 581 ft 80 kts 291°
2026-05-09 06:50 32.81985 -117.15100 789 ft 80 kts 280°
2026-05-09 06:51 32.82048 -117.15759 1003 ft 80 kts 276°
2026-05-09 06:51 32.82162 -117.16413 1197 ft 83 kts 289°
2026-05-09 06:51 32.82357 -117.17055 1397 ft 86 kts 291°
2026-05-09 06:51 32.82562 -117.17710 1654 ft 79 kts 289°
2026-05-09 06:52 32.82722 -117.18364 1807 ft 86 kts 284°
2026-05-09 06:52 32.82856 -117.19036 2044 ft 83 kts 281°
2026-05-09 06:52 32.83026 -117.19704 2224 ft 82 kts 300°
2026-05-09 06:52 32.83274 -117.20296 2419 ft 80 kts 283°
2026-05-09 06:53 32.83034 -117.20893 2536 ft 92 kts 211°
2026-05-09 06:53 32.82420 -117.20997 2691 ft 96 kts 165°
2026-05-09 06:53 32.81780 -117.20713 2808 ft 95 kts 191°
2026-05-09 06:53 32.81128 -117.20797 2920 ft 99 kts 176°
2026-05-09 06:54 32.80685 -117.20242 3054 ft 100 kts 98°
2026-05-09 06:54 32.80522 -117.19433 3196 ft 102 kts 101°
2026-05-09 06:54 32.80360 -117.18605 3311 ft 103 kts 101°
2026-05-09 06:54 32.80200 -117.17768 3439 ft 104 kts 100°
2026-05-09 06:55 32.80044 -117.16934 3586 ft 101 kts 101°
2026-05-09 06:55 32.79900 -117.16120 3718 ft 101 kts 101°
2026-05-09 06:55 32.79753 -117.15291 3835 ft 103 kts 101°
2026-05-09 06:55 32.79609 -117.14461 3988 ft 102 kts 101°
2026-05-09 06:56 32.79465 -117.13629 4130 ft 104 kts 101°
2026-05-09 06:56 32.79322 -117.12796 4279 ft 104 kts 101°
2026-05-09 06:56 32.79204 -117.12100 4394 ft 105 kts 101°
2026-05-09 06:56 32.79066 -117.11249 4532 ft 105 kts 100°
2026-05-09 06:57 32.78925 -117.10392 4663 ft 106 kts 101°
2026-05-09 06:57 32.78785 -117.09527 4794 ft 107 kts 101°
2026-05-09 06:57 32.78647 -117.08668 4923 ft 107 kts 101°
2026-05-09 06:57 32.78504 -117.07786 4997 ft 113 kts 101°
2026-05-09 06:58 32.78350 -117.06832 5012 ft 122 kts 101°
2026-05-09 06:58 32.78185 -117.05801 5011 ft 128 kts 101°
2026-05-09 06:58 32.78020 -117.04763 4999 ft 130 kts 101°
2026-05-09 06:58 32.77849 -117.03694 4995 ft 132 kts 101°
2026-05-09 06:59 32.77676 -117.02618 4998 ft 133 kts 101°
2026-05-09 06:59 32.77503 -117.01541 4997 ft 134 kts 101°
2026-05-09 06:59 32.77330 -117.00452 4999 ft 134 kts 101°
2026-05-09 06:59 32.77154 -116.99353 5001 ft 135 kts 101°
2026-05-09 07:00 32.76977 -116.98249 4999 ft 136 kts 101°
2026-05-09 07:00 32.76718 -116.97176 4992 ft 135 kts 127°
2026-05-09 07:00 32.75938 -116.96706 4956 ft 124 kts 184°
2026-05-09 07:00 32.75068 -116.96810 4662 ft 133 kts 193°
2026-05-09 07:01 32.74153 -116.96969 4675 ft 126 kts 194°
2026-05-09 07:01 32.73269 -116.97094 4522 ft 136 kts 189°
2026-05-09 07:01 32.72311 -116.97125 4175 ft 140 kts 178°
2026-05-09 07:01 32.71326 -116.96975 3894 ft 139 kts 175°
2026-05-09 07:02 32.70406 -116.96928 3698 ft 132 kts 196°
2026-05-09 07:02 32.69689 -116.97527 3364 ft 134 kts 247°
2026-05-09 07:02 32.69507 -116.98538 3492 ft 107 kts 264°
2026-05-09 07:02 32.69375 -116.99360 3722 ft 96 kts 263°
2026-05-09 07:03 32.69207 -117.00163 3794 ft 103 kts 259°
2026-05-09 07:03 32.69159 -117.01009 3868 ft 104 kts 278°
2026-05-09 07:03 32.69298 -117.01910 3748 ft 113 kts 284°
2026-05-09 07:03 32.69454 -117.02792 3750 ft 105 kts 285°
2026-05-09 07:04 32.69672 -117.03631 3803 ft 109 kts 291°
2026-05-09 07:04 32.69896 -117.04497 3682 ft 110 kts 285°
2026-05-09 07:04 32.70078 -117.05428 3298 ft 112 kts 287°
2026-05-09 07:04 32.70269 -117.06270 3151 ft 105 kts 286°
2026-05-09 07:05 32.70471 -117.07129 2690 ft 117 kts 290°
2026-05-09 07:05 32.70736 -117.08059 2207 ft 119 kts 287°
2026-05-09 07:05 32.70958 -117.09002 1805 ft 115 kts 286°
2026-05-09 07:05 32.71195 -117.09869 1612 ft 109 kts 289°
2026-05-09 07:06 32.71325 -117.10425 1538 ft 106 kts 283°
2026-05-09 07:06 32.71502 -117.11287 1365 ft 114 kts 284°
2026-05-09 07:06 32.71724 -117.12238 1165 ft 121 kts 284°
2026-05-09 07:06 32.71942 -117.13189 1020 ft 115 kts 287°
2026-05-09 07:07 32.72170 -117.13999 777 ft 94 kts 289°
2026-05-09 07:07 32.72353 -117.14710 613 ft 85 kts 283°
2026-05-09 07:07 32.72494 -117.15402 449 ft 94 kts 286°
2026-05-09 07:07 32.72690 -117.16125 405 ft 90 kts 287°
2026-05-09 07:08 32.72860 -117.16838 287 ft 86 kts 285°
2026-05-09 07:08 32.72997 -117.17487 169 ft 79 kts 287°
2026-05-09 07:08 32.73143 -117.18093 23 ft 72 kts 287°
2026-05-09 07:08 32.73263 -117.18569 21 ft 49 kts 286°
2026-05-09 07:09 32.73305 -117.18752 12 ft 13 kts 292°
2026-05-09 07:09 32.73361 -117.18814 18 ft 11 kts 354°
2026-05-09 07:09 32.73411 -117.18805 17 ft 0 kts 12°
2026-05-09 07:13 32.73432 -117.18785 18 ft 11 kts 81°
2026-05-09 07:13 32.73393 -117.18649 18 ft 24 kts 108°
2026-05-09 07:13 32.73338 -117.18421 21 ft 34 kts 106°
2026-05-09 07:13 32.73268 -117.18139 20 ft 21 kts 106°
2026-05-09 07:14 32.73255 -117.17989 20 ft 9 kts 48°
2026-05-09 07:14 32.73293 -117.17961 21 ft 6 kts 18°
2026-05-09 07:14 32.73353 -117.17944 23 ft 10 kts 49°
2026-05-09 07:14 32.73359 -117.17900 22 ft 0 kts 58°